Temperature
19 19 18 18 18 18 18 18 18 18 18 18 17 17 17 17 17 17 17 17 17 17 17 17 17 16 16 16 16 16 16 16 16 16 16 16 16 16 16 16 16 16 16
19 18 18 18 18 18 18 18 17 17 17 17 17 17 17 17 17 17 17 17 17 17 16 16 17 16 16 16 16 16 16 16 16 16 16 16 16 16 16 16 16 16 16
18 18 18 18 18 18 17 17 17 17 17 17 17 17 17 17 16 16 16 16 16 16 16 16 16 16 16 16 16 16 16 16 16 15 15 16 16 15 15 15 15 15 15
18 18 18 17 17 17 17 17 17 17 17 17 17 16 16 16 16 16 16 16 16 16 16 16 16 16 16 16 16 16 15 15 15 15 15 15 15 15 15 15 15 15 15
18 18 17 17 17 17 17 17 17 16 16 16 16 16 16 16 16 16 16 16 16 16 16 16 16 15 15 15 15 15 15 15 15 15 15 15 15 15 15 15 15 15 15
17 17 17 17 17 17 16 16 16 16 16 16 16 15 15 15 15 15 15 15 15 15 15 15 15 15 15 15 15 15 15 15 14 14 14 14 14 14 14 14 14 14 14
17 17 17 17 16 16 16 16 16 16 15 15 15 15 15 15 15 15 15 15 15 15 15 15 15 15 15 15 15 14 14 14 14 14 14 14 14 14 14 14 14 14 14
17 17 16 16 16 16 16 16 16 15 15 15 15 15 15 15 14 15 14 14 14 14 14 14 14 14 14 14 14 14 14 14 14 14 14 14 14 13 13 13 13 13 13
16 16 16 16 16 16 16 16 15 15 15 15 15 14 14 14 14 14 14 14 14 14 14 14 14 14 14 14 14 14 14 14 13 13 13 13 13 13 13 13 13 13 13
16 16 16 15 15 15 15 15 15 15 14 14 14 14 14 14 14 14 14 14 13 13 13 13 13 13 13 13 13 13 13 13 13 13 13 13 13 13 13 13 12 12 12
15 15 15 15 15 15 15 14 14 14 14 14 14 14 13 13 13 13 13 13 13 13 13 13 13 13 13 13 13 13 13 13 12 12 12 12 12 12 12 12 12 12 12
15 15 15 15 15 15 14 14 14 14 14 14 13 13 13 13 13 13 13 13 13 13 13 13 12 12 12 12 12 12 12 12 12 12 12 12 12 12 12 12 12 12 12
15 14 14 14 14 14 14 14 14 14 13 13 13 13 13 13 13 12 12 12 12 12 12 12 12 12 12 12 12 12 12 11 11 11 11 11 11 11 11 11 11 11 11
14 14 14 14 14 14 14 14 14 13 13 13 13 13 13 12 12 12 12 12 12 12 12 12 12 12 11 11 11 11 11 11 11 11 11 11 11 11 11 11 11 11 11
14 14 14 14 14 14 14 13 13 13 13 13 13 13 12 12 12 12 12 12 12 12 12 11 11 11 11 11 11 11 11 10 11 11 11 11 10 10 10 10 10 10 10
14 14 14 14 14 13 13 13 13 13 13 13 13 12 12 12 12 12 12 12 12 12 11 11 11 11 10 10 10 10 10 10 10 10 10 10 10 10 10 10 10 10 10
14 14 13 13 13 13 13 13 13 13 12 12 12 12 12 12 12 11 11 11 11 11 11 11 10 10 10 10 10 10 10 10 10 10 9 9 9 9 9 9 9 9 9
13 13 13 13 13 13 13 13 13 12 12 12 12 12 11 11 11 11 11 11 11 10 10 10 10 9 9 9 9 9 9 9 9 9 9 9 9 9 9 9 9 9 9
13 13 13 13 13 13 13 12 12 12 12 12 11 11 11 11 11 10 10 10 10 10 9 9 9 9 9 8 9 8 8 8 8 8 8 8 8 8 8 8 8 8 8
13 13 13 13 12 12 12 12 12 12 11 11 11 11 11 10 10 10 10 9 9 9 9 9 9 8 8 8 8 8 8 8 8 8 8 8 8 8 8 8 8 8 7
13 12 12 12 12 12 12 12 11 11 11 11 11 11 11 10 10 10 9 9 9 9 9 9 8 8 8 8 8 8 7 7 7 7 7 7 7 7 7 7 7 7 7
12 12 12 12 12 12 11 11 11 11 11 11 11 10 10 10 10 9 9 9 9 9 8 8 8 8 8 8 7 7 7 7 7 7 7 7 7 7 6 7 6 6 6
12 12 12 12 11 11 11 11 11 11 11 10 10 10 10 10 9 9 9 9 9 8 8 8 8 8 7 7 7 7 7 7 7 6 6 6 6 6 6 6 6 6 6
12 12 12 12 11 11 11 11 11 11 10 10 10 10 10 9 9 9 9 9 9 8 8 8 8 7 7 7 7 7 7 6 6 6 6 6 6 6 6 6 6 5 5
12 12 12 12 11 11 11 11 11 10 10 10 10 9 9 9 9 9 9 8 8 8 8 7 7 7 7 7 7 7 6 6 6 6 6 5 5 5 5 5 5 5 5
12 12 11 11 11 11 11 11 10 10 10 10 9 9 9 9 9 8 8 8 8 8 7 7 7 7 7 7 6 6 6 6 6 6 5 5 5 5 5 5 4 4 4
Wind_Speed
4 3 3 3 2 2 3 3 2 2 2 2 2 2 2 1 2 1 2 1 1 2 2 1 2 2 1 1 1 2 2 2 4 5 3 3 3 3 3 5 7 7 8
4 4 3 2 2 2 2 2 2 2 2 2 2 2 2 1 2 2 2 2 2 2 2 2 3 2 1 2 1 2 3 3 3 4 4 2 2 3 3 4 4 6 7
5 4 3 3 2 3 3 2 2 2 2 1 2 2 1 1 1 2 2 2 2 2 2 3 3 2 2 2 2 2 3 3 2 2 3 2 2 2 1 3 3 3 6
4 4 3 3 3 3 3 2 2 3 2 2 2 2 1 1 1 1 2 2 2 2 2 3 3 3 3 3 3 3 3 2 1 1 2 2 2 2 1 2 3 3 4
4 4 4 3 3 3 2 2 2 2 2 2 2 1 0 1 1 1 2 2 2 2 2 3 3 3 3 3 3 2 2 2 1 1 2 2 2 1 2 2 3 3 4
4 3 2 2 2 2 3 2 2 2 2 2 2 1 0 0 0 0 1 1 1 1 2 3 3 2 2 2 3 3 3 3 3 3 3 3 4 3 2 2 2 2 4
3 2 2 2 2 2 2 2 2 2 2 2 2 1 1 1 0 1 2 1 1 1 2 2 2 2 2 3 3 3 3 4 4 4 4 4 4 4 3 2 2 3 5
2 2 2 2 2 2 2 2 1 2 3 2 2 2 1 1 0 0 1 1 1 2 2 2 2 2 2 2 2 3 3 4 4 3 4 5 4 4 4 4 4 3 3
1 1 2 3 2 2 2 2 2 2 1 2 2 2 1 1 1 1 1 0 1 2 3 2 1 2 3 2 1 2 3 4 4 2 2 3 3 3 3 1 1 1 4
1 2 2 2 3 2 2 2 2 2 2 2 1 1 1 1 2 2 1 0 1 2 2 2 1 2 3 2 2 2 3 4 3 3 3 4 4 4 3 3 3 3 3
1 1 1 2 3 3 2 2 2 2 2 2 1 1 1 1 1 1 1 0 1 2 2 2 3 3 4 3 2 2 5 3 2 2 3 3 3 3 3 3 4 4 4
1 1 1 1 2 2 2 2 2 2 2 1 1 1 1 1 1 1 1 1 1 1 2 2 2 3 3 3 2 3 4 2 1 1 2 3 3 4 4 4 5 5 6
1 1 1 1 1 2 3 3 2 2 2 2 2 2 2 2 2 2 2 2 2 1 2 3 3 3 3 3 3 3 2 1 1 1 3 4 4 4 4 3 4 4 5
2 1 1 2 2 2 2 2 3 3 3 3 3 3 2 1 1 1 2 2 2 2 2 2 3 3 2 3 3 3 1 1 1 2 3 3 4 4 3 3 3 2 3
2 2 2 2 2 2 2 2 3 3 5 5 4 4 3 2 3 3 1 1 2 2 1 2 2 3 3 3 3 2 2 2 2 2 2 3 4 4 4 3 2 2 2
2 2 2 2 2 2 2 1 1 1 3 5 5 4 3 4 4 2 2 1 1 1 3 1 1 1 1 2 2 3 2 2 2 2 2 3 3 4 4 4 2 2 3
2 2 2 2 2 2 2 2 1 2 2 1 2 3 2 1 1 1 1 1 2 4 3 1 1 1 2 2 2 2 2 2 2 2 3 3 4 4 4 4 4 3 4
2 2 2 2 2 2 2 2 2 2 1 1 1 2 2 1 1 2 3 4 3 2 1 1 0 1 1 2 2 2 2 3 2 2 2 3 3 3 4 4 4 3 4
2 2 1 2 2 2 2 2 2 2 2 0 1 2 1 0 2 3 4 3 2 1 0 0 0 1 1 2 2 2 2 2 2 2 2 3 3 3 4 4 4 5 4
2 1 2 2 1 1 2 2 2 2 2 1 1 0 1 3 2 1 1 1 1 1 0 0 1 1 1 1 1 2 2 2 2 2 3 3 3 3 4 5 4 4 4
1 1 1 2 2 2 2 2 2 3 3 2 2 2 4 3 2 2 2 2 2 2 2 2 1 1 1 1 1 2 2 2 2 2 3 4 4 4 4 4 4 4 4
1 2 2 2 2 2 2 2 2 3 3 2 1 1 4 3 2 2 2 2 2 2 2 1 1 1 1 1 0 0 1 2 2 3 3 3 3 4 4 4 4 4 4
2 2 2 2 2 2 2 1 2 2 2 2 2 2 3 3 2 2 2 2 2 1 1 1 1 0 1 0 1 1 1 1 2 2 3 3 3 4 4 4 4 4 4
2 2 3 2 2 2 2 2 2 2 2 2 2 2 3 3 3 2 2 1 1 1 1 2 2 2 2 1 1 0 0 1 2 2 2 2 3 3 3 4 4 4 4
3 2 2 3 3 3 3 2 3 3 2 2 2 2 2 2 2 2 1 1 1 1 1 1 2 2 2 2 1 0 2 2 3 3 3 1 3 4 4 4 4 4 4
2 2 2 2 2 2 2 2 2 2 2 2 2 2 2 3 3 2 2 1 1 1 1 1 2 2 2 1 1 0 2 3 4 4 3 2 2 3 4 4 5 4 5
Wind_Direction
168 167 163 165 168 163 171 184 192 194 183 186 192 194 191 192 199 197 236 240 238 263 268 246 261 256 257 256 229 236 234 211 246 273 264 265 231 242 236 231 233 228 235
171 155 155 155 159 170 186 199 190 193 193 190 184 195 204 197 196 200 234 250 240 250 259 255 264 265 270 268 256 251 245 227 221 264 283 279 243 233 228 235 242 240 238
156 152 159 167 175 190 196 197 187 182 176 166 156 180 202 202 198 217 219 244 244 246 244 242 257 259 266 264 262 262 264 263 231 243 272 276 265 250 252 260 263 264 253
150 157 167 186 196 199 194 192 193 180 171 177 179 194 204 201 199 232 232 230 243 259 257 247 246 241 242 243 251 253 256 263 262 257 271 289 286 277 219 252 277 266 262
149 162 186 190 185 185 187 197 192 182 185 173 146 145 181 185 230 229 229 217 232 269 288 275 259 254 248 240 245 252 247 249 254 257 270 296 295 303 259 244 256 273 269
145 167 185 177 175 182 189 190 181 179 176 142 144 147 104 300 43 76 167 212 222 241 282 297 290 289 295 266 247 245 222 230 240 243 252 257 262 256 257 251 251 278 282
126 143 153 161 167 184 181 154 164 180 163 155 166 165 182 241 94 109 104 170 229 261 264 281 297 301 299 286 288 288 275 253 236 229 240 250 250 243 233 252 246 246 257
147 155 163 151 166 169 146 152 166 158 162 168 178 190 197 248 332 25 124 213 247 264 258 241 249 282 301 285 279 290 289 289 273 246 237 251 253 241 222 224 234 258 282
161 186 181 165 156 158 167 183 184 162 171 184 181 183 198 266 333 349 53 311 288 285 283 267 235 259 296 302 275 281 295 303 308 288 267 278 284 274 245 215 259 268 287
219 213 193 170 166 181 190 194 195 171 190 198 215 215 206 262 357 15 16 290 293 291 295 290 282 277 287 289 240 248 271 284 309 327 318 311 304 305 288 227 218 229 257
213 212 200 191 185 187 187 195 190 183 181 188 206 243 230 258 309 351 16 223 248 279 296 304 307 318 311 294 246 238 254 263 287 294 300 301 303 297 284 256 231 213 225
166 175 210 228 195 169 163 179 184 178 177 192 209 281 280 283 299 302 334 329 254 234 268 281 296 315 315 317 296 282 288 302 313 318 316 312 299 291 283 269 256 244 236
147 192 232 240 229 201 184 190 194 188 190 209 212 237 279 304 317 329 341 332 341 264 268 290 311 320 320 322 332 335 341 354 330 316 305 297 290 282 286 285 279 272 275
176 221 243 226 228 231 207 193 192 202 201 206 211 219 235 262 300 327 340 335 334 339 328 328 341 345 351 350 354 355 3 320 265 270 288 293 305 310 299 282 275 283 289
199 216 230 237 224 225 229 217 201 207 195 193 205 199 202 236 251 224 200 276 269 273 351 32 31 23 12 360 350 338 340 353 336 313 304 306 307 308 298 288 271 273 268
221 231 227 222 212 203 204 283 30 177 185 175 170 169 203 217 218 214 218 236 236 125 106 65 358 348 340 335 330 330 336 332 321 319 316 309 308 308 305 306 297 281 276
220 234 235 221 207 197 191 181 171 2 24 153 170 167 161 174 173 165 135 115 109 115 95 78 5 340 333 330 323 325 328 317 323 329 319 316 316 317 316 315 315 309 295
212 222 206 212 206 195 190 179 168 164 148 341 307 232 214 165 112 104 99 92 71 71 87 116 254 306 320 312 314 324 322 327 331 326 321 324 326 323 321 318 314 309 302
199 203 203 199 188 177 169 161 163 162 156 138 20 359 288 183 77 76 98 99 110 99 92 30 305 301 317 309 306 312 313 313 320 325 326 321 323 328 322 315 313 314 312
215 203 184 173 159 152 156 157 167 169 159 149 163 229 77 81 72 74 106 122 127 151 179 225 268 277 291 312 325 331 331 328 334 332 327 326 325 326 316 313 314 315 315
204 209 135 129 151 154 156 168 171 168 170 181 208 199 158 147 169 179 188 200 203 206 217 232 244 266 291 308 330 2 356 344 347 345 339 336 337 332 321 318 321 320 318
174 173 168 162 166 161 168 182 177 175 181 186 197 179 167 157 175 193 210 222 222 217 209 189 203 252 271 265 283 37 32 2 349 343 335 332 332 328 324 329 332 329 328
180 174 163 166 182 181 181 189 180 175 179 187 186 168 172 188 193 198 211 220 211 208 211 184 168 201 317 66 112 135 124 301 300 304 314 319 321 321 318 317 317 319 321
187 197 196 189 177 172 185 198 197 193 192 198 192 191 187 193 197 203 207 204 197 194 189 176 170 171 144 119 99 96 192 278 292 287 285 297 309 309 309 310 311 311 313
194 199 202 202 193 196 205 212 210 205 199 192 190 196 192 180 182 189 197 207 186 183 183 166 159 159 144 127 128 322 320 323 322 316 308 313 312 309 310 310 308 313 315
184 189 196 196 189 194 189 189 199 204 200 195 187 185 177 175 182 188 186 186 190 188 167 158 155 148 149 155 163 314 322 322 322 324 317 307 308 306 309 308 310 314 316
Height
1521 1522 1522 1523 1523 1523 1523 1524 1524 1525 1526 1526 1526 1526 1526 1526 1526 1526 1526 1526 1525 1525 1525 1525 1525 1525 1524 1524 1524 1524 1524 1524 1522 1520 1519 1519 1519 1519 1519 1520 1520 1519 1519
1519 1520 1521 1521 1521 1521 1521 1522 1523 1523 1523 1524 1524 1524 1524 1524 1524 1524 1523 1523 1523 1523 1522 1522 1522 1522 1522 1522 1521 1521 1520 1520 1519 1517 1516 1515 1515 1515 1516 1516 1516 1516 1516
1517 1518 1519 1519 1519 1519 1519 1520 1520 1520 1521 1521 1521 1521 1521 1521 1521 1521 1521 1520 1520 1520 1520 1519 1519 1519 1519 1519 1518 1518 1517 1517 1516 1514 1513 1512 1512 1512 1512 1512 1512 1512 1512
1517 1517 1517 1517 1517 1517 1517 1518 1518 1518 1518 1518 1518 1519 1519 1519 1519 1519 1518 1517 1517 1517 1517 1517 1516 1516 1516 1516 1515 1515 1514 1513 1512 1511 1510 1509 1508 1509 1509 1508 1508 1508 1508
1515 1515 1515 1515 1515 1516 1515 1515 1516 1516 1516 1516 1516 1516 1516 1516 1516 1515 1515 1515 1514 1514 1514 1514 1513 1513 1513 1513 1512 1511 1511 1510 1509 1508 1507 1506 1505 1505 1505 1504 1504 1504 1504
1513 1513 1514 1514 1514 1513 1513 1513 1513 1513 1514 1513 1513 1513 1513 1513 1513 1512 1512 1512 1511 1511 1510 1510 1510 1510 1510 1510 1509 1508 1508 1507 1505 1505 1504 1503 1502 1502 1502 1501 1501 1500 1499
1511 1511 1511 1511 1511 1511 1511 1511 1511 1511 1511 1511 1511 1511 1511 1510 1510 1510 1509 1509 1508 1507 1507 1507 1507 1506 1506 1506 1505 1505 1504 1504 1503 1502 1501 1500 1500 1499 1499 1498 1498 1497 1496
1509 1508 1508 1508 1508 1509 1508 1508 1508 1507 1507 1508 1508 1508 1508 1508 1508 1507 1507 1507 1506 1505 1504 1504 1503 1503 1503 1502 1502 1501 1500 1500 1499 1498 1498 1497 1497 1496 1496 1495 1495 1494 1493
1506 1505 1505 1505 1505 1505 1506 1505 1505 1505 1505 1505 1506 1506 1505 1505 1506 1506 1505 1504 1503 1502 1502 1501 1501 1500 1499 1499 1498 1497 1497 1496 1495 1495 1494 1493 1493 1492 1492 1492 1491 1490 1488
1505 1504 1503 1503 1503 1503 1503 1503 1503 1503 1503 1503 1503 1504 1504 1503 1503 1503 1503 1502 1501 1500 1499 1498 1498 1497 1496 1496 1495 1494 1493 1492 1492 1491 1490 1490 1489 1488 1488 1487 1487 1486 1485
1503 1502 1502 1502 1501 1501 1501 1501 1501 1501 1501 1501 1501 1502 1502 1502 1501 1501 1501 1500 1499 1498 1496 1496 1495 1495 1493 1493 1492 1491 1490 1490 1488 1487 1486 1486 1485 1484 1483 1483 1483 1482 1481
1502 1501 1500 1500 1499 1499 1499 1499 1500 1500 1500 1499 1499 1499 1500 1500 1499 1499 1498 1498 1497 1496 1495 1494 1493 1492 1491 1490 1489 1488 1488 1487 1485 1484 1483 1482 1481 1480 1480 1479 1479 1478 1477
1499 1499 1498 1498 1498 1497 1497 1497 1497 1498 1498 1498 1497 1497 1497 1497 1497 1497 1496 1496 1495 1494 1493 1492 1491 1490 1489 1488 1487 1486 1484 1483 1482 1480 1479 1479 1478 1476 1476 1475 1474 1473 1472
1497 1497 1497 1496 1496 1496 1496 1496 1496 1496 1496 1496 1495 1495 1495 1495 1495 1495 1494 1493 1493 1492 1491 1490 1489 1488 1487 1486 1485 1484 1482 1481 1479 1478 1477 1476 1475 1474 1472 1471 1470 1469 1468
1495 1495 1494 1494 1494 1494 1494 1494 1494 1494 1494 1494 1493 1493 1493 1492 1492 1492 1491 1491 1490 1489 1488 1487 1486 1485 1484 1483 1482 1481 1480 1479 1477 1476 1475 1474 1472 1471 1469 1468 1466 1465 1464
1493 1493 1492 1492 1492 1492 1492 1492 1492 1492 1492 1492 1492 1492 1491 1491 1490 1490 1489 1488 1488 1487 1486 1484 1483 1482 1481 1481 1480 1479 1478 1477 1476 1474 1473 1471 1469 1467 1466 1464 1462 1461 1460
1491 1490 1490 1490 1490 1490 1490 1490 1490 1490 1490 1490 1490 1489 1489 1488 1488 1487 1486 1486 1485 1484 1482 1481 1481 1480 1479 1479 1478 1477 1476 1475 1474 1472 1470 1468 1466 1465 1463 1461 1459 1458 1456
1488 1488 1488 1488 1488 1488 1488 1488 1488 1488 1487 1487 1487 1487 1486 1486 1485 1484 1484 1483 1482 1481 1480 1479 1479 1478 1477 1476 1475 1474 1473 1472 1471 1469 1467 1466 1464 1462 1460 1458 1456 1454 1453
1486 1486 1485 1485 1485 1486 1486 1486 1487 1487 1486 1486 1485 1485 1484 1484 1483 1483 1482 1481 1479 1478 1478 1477 1477 1476 1476 1475 1473 1471 1470 1469 1468 1467 1465 1463 1461 1459 1456 1454 1452 1450 1449
1484 1484 1483 1483 1483 1484 1484 1484 1484 1484 1484 1484 1483 1483 1482 1482 1481 1480 1480 1479 1478 1478 1477 1476 1475 1475 1474 1473 1471 1470 1468 1467 1465 1464 1462 1460 1457 1455 1453 1451 1449 1447 1445
1482 1482 1481 1481 1481 1482 1482 1482 1482 1482 1482 1481 1481 1481 1480 1480 1479 1479 1478 1478 1477 1477 1476 1475 1474 1473 1472 1470 1469 1467 1466 1465 1463 1461 1459 1457 1455 1452 1450 1448 1446 1444 1442
1480 1480 1480 1480 1480 1480 1480 1480 1480 1480 1480 1479 1479 1478 1478 1477 1477 1477 1476 1476 1475 1475 1474 1473 1472 1471 1470 1469 1468 1466 1464 1463 1461 1459 1457 1454 1452 1450 1449 1446 1443 1442 1440
1479 1479 1479 1478 1478 1478 1478 1478 1478 1478 1477 1477 1477 1476 1475 1475 1474 1474 1474 1474 1474 1473 1472 1471 1470 1469 1468 1467 1466 1464 1462 1460 1458 1457 1455 1452 1450 1448 1446 1443 1441 1439 1437
1478 1478 1477 1476 1476 1475 1475 1476 1476 1475 1475 1474 1474 1473 1472 1472 1471 1471 1471 1471 1471 1470 1469 1468 1468 1467 1466 1465 1463 1462 1460 1458 1456 1454 1452 1450 1448 1445 1443 1441 1439 1436 1434
1476 1475 1475 1474 1473 1473 1473 1473 1473 1473 1472 1472 1471 1471 1470 1469 1469 1469 1469 1469 1468 1468 1467 1466 1465 1465 1464 1462 1461 1460 1458 1456 1454 1452 1449 1447 1445 1443 1440 1438 1436 1434 1432
1473 1473 1472 1471 1471 1471 1470 1470 1470 1470 1470 1469 1469 1468 1468 1467 1467 1467 1467 1466 1466 1465 1464 1464 1463 1462 1461 1460 1459 1457 1455 1453 1451 1449 1446 1444 1442 1440 1438 1435 1433 1431 1429